STARLINK-5651, 55357

Orbit data source: Space-Track

STARLINK-5651, 55357 is a payload satellite owned by SpaceX/Seattle (US) in LEO that was launched on Thu, 26 Jan 2023 UTC via an FALCON 9 launch vehicle from the Air Force Eastern Test Range (AFETR). Payload-class satellites include a variety of spacecraft equipped with specific instruments for various scientific and technological missions. These include communications satellites like Starlink; space stations such as the ISS; scientific satellites like the Hubble; Earth observation satellites from companies like Planet Labs, Umbra, and HawkEye 360; GPS; miniature CubeSats for education and research; and military/defense satellites.

Loading next visibility...
Identifier
55357, 2023-013AC
Orbit
LEO
Country
Flag of USUS
Related business
Manufacturer
SpaceX/Seattle
Mission
Operational Commercial Communications
Bus & Motor
STARLINK, Unknown motor
Mass
305 kg wet, ~290 kg dry
Launch date (UTC)
2023-01-26 (3 years ago)
Launch vehicle
FALCON 9
Launch site
Air Force Eastern Test Range (AFETR)
Object type
Payload
Rocket body
Debris
Shape & HBR
Box + 1 Pan, 10.1 m
Radar Cross Section
13.562 m², Large (>1 m²)

Expand to show TLE details & history
Last TLE update: 2 days ago

TLE from 2 days ago
0 STARLINK-5651
1 55357U 23013AC  26171.14383798 -.00002804  00000-0 -92394-4 0  9991
2 55357  43.0060  84.6897 0002090 258.3997 101.6621 15.27578378187349
Epoch: 2026-06-20T03:27Z
TLE epoch observation values (Epoch: 2026-06-20T03:27:07.601Z)
Latitude
0.00004°
Longitude
124.54538°
Altitude
483.12 km
Speed
7.625 km/s
True Right ascension
05h 38m 45s
True Declination
0° 00' 00"
Sunlit
Object was in daylight at epoch
Visualization orbit readout
Latitude
Unknown
Longitude
Unknown
Altitude
Unknown
Speed
Unknown
Apparent Right ascension
Unknown
Apparent Declination
Unknown
Sunlit
N/A
Visualization observer readout
Local Sidereal Time
21:54:30
Azimuth
Unknown
Elevation
Unknown
Doppler factor
Unknown
Orbital elements
Apogee altitude
486.433 km
Perigee altitude
483.564 km
Semi-major axis
6,863.135 km
Eccentricity
0.00021
Inclination
43.006°
RAAN
84.6897°
Arg. of periapsis
258.3997°
True anomaly
101.68555°
Mean anomaly
101.6621°
Eccentric anomaly
101.67383°
Mean motion
3.81733 °/min
Orbital period
94.31 mins
BSTAR
-0.000092394
Loading maneuver chart data...
Computing Atmospheric mass density...
Loading historical data...
Loading historical data...
Loading historical data...
Loading historical data...
Loading historical data...
Loading historical data...
Loading historical data...

Documentation

Showing up to 5 results
|